Wind_Speed
7 7 6 6 5 6 11 11 11 9 10 9 5 3 2 7 6 6 8 8 8 9 8 6 5 6 8 10 11 8 10 11 11
6 5 5 5 6 7 6 5 4 4 4 3 2 2 2 6 4 4 5 7 8 9 8 8 8 9 9 8 8 9 10 11 12
3 2 3 3 5 5 5 4 3 2 1 1 2 2 3 6 4 5 6 9 9 10 9 9 11 12 13 12 10 9 10 11 10
3 3 1 2 2 3 3 3 3 2 2 2 3 3 4 6 4 6 5 11 10 10 10 8 10 11 12 12 13 13 13 13 13
7 5 3 1 1 1 2 2 2 2 2 3 4 5 7 8 6 5 9 10 10 10 12 14 13 14 14 15 14 12 13 16 18
4 6 3 2 1 1 1 1 2 3 5 6 5 6 5 6 7 9 11 11 11 13 14 15 16 16 15 16 15 14 15 15 16
10 7 5 3 2 1 1 2 4 6 4 8 8 5 5 6 6 11 12 13 12 13 14 14 14 14 14 14 15 15 15 17 18
9 3 4 2 2 3 5 6 2 4 3 6 6 7 6 6 7 16 14 13 13 13 14 16 16 15 15 15 17 17 17 18 18
7 6 6 5 1 4 3 7 6 6 8 9 8 11 13 13 12 16 16 15 14 13 15 17 17 17 16 17 18 19 19 19 19
8 8 5 5 7 7 7 7 8 8 8 11 13 14 14 15 14 16 19 16 14 16 17 17 17 17 16 16 16 17 17 18 19
10 9 9 5 7 9 9 8 10 10 10 12 14 15 15 16 16 11 19 16 15 15 16 16 15 14 14 15 17 19 21 22 23
13 11 8 6 6 9 11 10 10 10 12 14 15 14 14 14 14 11 9 15 11 13 13 13 14 15 17 17 19 21 22 23 24
14 12 11 8 6 7 8 8 9 11 12 13 12 13 13 11 10 9 9 10 11 13 12 15 17 18 19 22 23 23 25 25 25
17 15 13 11 8 7 7 7 9 11 12 12 12 13 13 11 8 8 10 10 11 14 17 18 19 21 22 23 23 24 24 25 26
19 17 14 12 9 8 7 8 9 10 12 11 10 13 10 9 8 8 8 12 13 15 19 19 18 23 26 25 25 24 23 24 25
21 19 15 13 10 8 7 7 9 11 11 10 8 10 10 10 10 8 8 12 16 18 16 18 22 24 23 25 25 24 25 26 27
23 20 16 13 11 8 6 6 9 11 11 9 8 3 7 8 6 9 16 11 16 12 18 22 23 22 23 22 23 26 27 28 28
23 19 16 14 11 8 6 6 8 10 11 9 4 3 3 13 10 13 11 14 14 20 24 24 23 24 26 23 25 28 29 27 28
24 20 17 14 11 8 6 7 8 8 9 11 8 6 9 4 9 7 9 15 19 21 25 26 25 26 22 23 27 27 28 31 32
23 20 17 14 11 8 6 7 8 9 9 9 9 10 9 9 10 16 11 20 19 23 20 21 27 24 22 26 25 19 24 27 29
Wind_Direction
91 77 67 68 81 127 181 201 216 237 248 271 289 311 24 58 8 9 342 7 359 358 9 352 327 307 282 267 280 291 302 270 266
78 64 67 84 91 105 126 156 189 210 226 234 271 10 62 51 36 358 337 308 343 346 354 348 344 335 321 298 292 276 274 289 270
130 46 52 101 115 117 123 133 138 127 101 64 33 35 30 41 348 333 343 317 334 332 334 332 318 313 312 311 302 289 288 290 284
192 233 248 147 135 123 122 124 120 103 58 31 28 19 11 24 327 343 308 300 317 318 322 314 316 320 316 313 289 289 284 281 284
195 206 231 190 167 139 126 112 97 62 22 356 353 356 15 25 320 327 294 314 317 309 304 306 310 310 308 308 304 309 296 283 279
184 196 231 222 205 169 116 62 21 10 358 346 340 13 356 323 307 293 288 309 304 301 301 301 303 304 303 299 298 297 291 289 291
186 227 225 242 228 244 337 338 354 41 341 336 359 359 325 314 314 288 303 306 302 300 299 299 296 298 300 299 297 294 288 287 289
205 224 235 239 253 15 339 348 58 247 263 293 318 323 318 312 300 288 302 300 298 293 291 287 288 290 291 291 292 294 294 293 291
180 181 195 176 244 227 199 228 284 310 301 301 293 297 298 294 294 293 299 297 291 286 278 283 284 288 287 287 290 292 291 290 289
179 182 171 180 202 216 268 286 290 289 295 304 303 302 299 298 296 288 294 291 283 277 279 284 288 291 291 294 297 297 296 296 294
180 190 205 241 275 264 264 269 285 290 298 302 302 303 303 299 292 276 287 287 282 281 284 288 292 293 294 297 301 302 300 298 296
200 202 198 243 265 255 261 268 280 294 306 304 299 301 297 296 293 277 257 292 285 283 287 290 294 294 295 298 301 301 298 298 295
201 206 211 221 247 255 260 270 286 300 309 313 312 308 306 296 281 278 265 259 284 294 292 294 296 295 297 303 304 302 301 300 296
208 211 213 220 237 252 255 270 291 311 323 325 318 309 308 295 272 257 276 280 279 288 298 302 300 300 300 304 304 303 302 299 298
213 213 217 230 238 235 248 280 305 320 328 327 316 308 303 286 276 280 286 288 292 290 302 304 310 309 309 310 307 305 302 301 299
211 213 214 229 225 224 252 290 312 322 329 336 322 315 319 305 286 275 274 289 296 295 298 297 306 307 307 308 306 305 304 301 300
209 213 219 225 212 223 255 293 311 320 334 345 352 330 284 315 297 262 281 282 290 290 293 300 303 301 306 302 300 299 298 298 296
205 209 217 216 210 227 258 293 310 323 330 344 353 329 294 291 286 272 280 295 289 298 300 304 304 305 308 302 301 301 300 299 299
200 210 212 206 213 233 261 290 309 323 322 333 327 301 278 295 298 256 296 287 291 300 300 301 304 307 302 299 302 302 300 301 306
200 205 206 205 215 237 266 290 311 319 318 317 314 315 303 285 269 296 293 288 293 295 299 298 300 306 301 299 300 292 297 305 306
Height
1516 1516 1516 1516 1517 1517 1519 1521 1522 1523 1523 1522 1522 1522 1523 1524 1527 1526 1525 1524 1523 1523 1521 1522 1522 1522 1522 1521 1521 1522 1522 1522 1522
1517 1517 1517 1517 1518 1518 1520 1521 1522 1522 1522 1522 1522 1522 1523 1524 1527 1527 1526 1524 1523 1523 1522 1522 1522 1521 1521 1520 1520 1519 1521 1521 1521
1517 1518 1519 1519 1519 1519 1520 1521 1521 1522 1522 1522 1522 1523 1523 1524 1527 1526 1526 1525 1523 1522 1521 1521 1521 1520 1520 1519 1518 1518 1519 1519 1519
1518 1518 1519 1520 1520 1520 1520 1521 1521 1521 1522 1523 1523 1523 1524 1524 1526 1526 1526 1524 1523 1521 1521 1520 1519 1518 1518 1517 1516 1517 1517 1518 1518
1518 1519 1519 1520 1520 1521 1521 1521 1521 1522 1522 1523 1523 1524 1524 1524 1526 1524 1523 1523 1522 1521 1520 1519 1519 1517 1516 1516 1515 1515 1515 1515 1515
1518 1518 1519 1519 1520 1521 1522 1522 1522 1522 1523 1523 1522 1524 1525 1525 1525 1523 1521 1521 1520 1520 1518 1517 1517 1516 1513 1513 1513 1513 1512 1512 1512
1518 1518 1519 1520 1520 1521 1522 1522 1523 1523 1525 1523 1522 1524 1525 1524 1523 1520 1519 1519 1518 1517 1516 1515 1514 1514 1512 1510 1510 1510 1509 1508 1508
1517 1518 1519 1519 1521 1521 1522 1522 1523 1523 1523 1523 1523 1522 1523 1522 1522 1517 1517 1516 1516 1515 1513 1512 1512 1511 1510 1507 1507 1507 1506 1505 1505
1516 1519 1520 1520 1522 1523 1522 1522 1522 1522 1521 1522 1521 1520 1519 1518 1518 1514 1515 1513 1512 1511 1510 1509 1508 1508 1507 1504 1503 1503 1503 1502 1501
1516 1517 1519 1520 1521 1520 1521 1520 1521 1521 1520 1519 1519 1518 1516 1515 1514 1511 1511 1510 1508 1507 1505 1506 1506 1505 1504 1501 1500 1500 1500 1500 1498
1515 1516 1516 1517 1518 1519 1519 1519 1519 1519 1518 1517 1516 1515 1513 1511 1510 1509 1506 1507 1504 1504 1502 1503 1502 1502 1501 1499 1498 1497 1496 1496 1495
1511 1512 1513 1516 1516 1516 1517 1517 1518 1517 1516 1515 1514 1511 1509 1509 1507 1506 1505 1502 1502 1501 1500 1500 1499 1499 1499 1497 1495 1494 1492 1491 1490
1508 1509 1511 1512 1513 1514 1514 1515 1516 1515 1513 1512 1509 1507 1506 1505 1504 1503 1502 1500 1499 1499 1499 1498 1496 1496 1495 1493 1491 1489 1487 1486 1485
1504 1507 1509 1510 1510 1511 1512 1513 1513 1512 1511 1509 1506 1505 1503 1502 1502 1501 1499 1498 1498 1497 1495 1495 1493 1491 1490 1489 1486 1484 1482 1480 1479
1502 1505 1506 1507 1508 1509 1510 1511 1510 1509 1508 1507 1505 1503 1501 1500 1499 1499 1498 1496 1495 1494 1493 1490 1489 1487 1484 1483 1481 1479 1477 1475 1473
1499 1502 1504 1505 1506 1507 1508 1509 1508 1507 1506 1505 1504 1501 1500 1499 1497 1497 1497 1495 1492 1491 1489 1487 1485 1483 1480 1478 1475 1473 1471 1469 1468
1496 1499 1501 1502 1504 1505 1505 1506 1506 1505 1504 1503 1502 1502 1501 1498 1497 1497 1494 1492 1489 1488 1485 1483 1481 1478 1476 1473 1470 1468 1466 1464 1462
1493 1497 1498 1500 1502 1502 1503 1504 1504 1503 1502 1502 1503 1501 1500 1496 1495 1494 1492 1489 1487 1484 1482 1479 1477 1473 1470 1467 1464 1462 1459 1457 1455
1489 1494 1496 1497 1499 1500 1501 1501 1501 1501 1501 1499 1499 1499 1498 1498 1494 1492 1489 1487 1484 1482 1478 1475 1472 1468 1465 1462 1459 1455 1452 1450 1447
1487 1490 1492 1494 1496 1497 1498 1499 1498 1498 1498 1498 1496 1495 1495 1495 1494 1487 1485 1483 1481 1477 1474 1469 1465 1462 1459 1456 1453 1450 1446 1443 1440